| time (UTC) | temp F | wind direction | speed MPH | gust MPH | rain 1hr in | rain 24hr in | rain mn in | humidity % | barometer mb |
| 20260505030307 | 61 | 196 | 1.0 | 7.0 | 0.00 | 0.00 | 0.00 | 56 | 1011.0 |
| 20260505025809 | 61 | 153 | 3.0 | 7.0 | 0.00 | 0.00 | 0.00 | 56 | 1011.1 |
| 20260505025111 | 61 | 215 | 2.0 | 5.0 | 0.00 | 0.00 | 0.00 | 56 | 1010.9 |
| 20260505024542 | 62 | 132 | 1.0 | 5.0 | 0.00 | 0.00 | 0.00 | 56 | 1011.0 |
| 20260505023933 | 62 | 181 | 2.0 | 5.0 | 0.00 | 0.00 | 0.00 | 55 | 1011.0 |
| 20260505023448 | 62 | 142 | 2.0 | 5.0 | 0.00 | 0.00 | 0.00 | 55 | 1010.9 |
| 20260505022901 | 62 | 133 | 1.0 | 6.0 | 0.00 | 0.00 | 0.00 | 54 | 1011.0 |
| 20260505022159 | 62 | 207 | 1.0 | 6.0 | 0.00 | 0.00 | 0.00 | 54 | 1011.1 |
| 20260505021719 | 62 | 192 | 1.0 | 3.0 | 0.00 | 0.00 | 0.00 | 54 | 1011.0 |
| 20260505021129 | 63 | 159 | 0.0 | 2.0 | 0.00 | 0.00 | 0.00 | 53 | 1011.1 |
| 20260505020537 | 63 | 120 | 1.0 | 2.0 | 0.00 | 0.00 | 0.00 | 52 | 1011.0 |
| 20260505020057 | 63 | 140 | 0.0 | 2.0 | 0.00 | 0.00 | 0.00 | 52 | 1011.0 |
| 20260505015513 | 64 | 150 | 0.0 | 2.0 | 0.00 | 0.00 | 0.00 | 51 | 1010.9 |
| 20260505014918 | 64 | 110 | 1.0 | 2.0 | 0.00 | 0.00 | 0.00 | 49 | 1010.7 |
| 20260505014325 | 65 | 113 | 1.0 | 4.0 | 0.00 | 0.00 | 0.00 | 50 | 1010.6 |
| 20260505013740 | 65 | 185 | 1.0 | 4.0 | 0.00 | 0.00 | 0.00 | 49 | 1010.5 |
| 20260505013258 | 65 | 169 | 1.0 | 5.0 | 0.00 | 0.00 | 0.00 | 49 | 1010.5 |
| 20260505012556 | 65 | 150 | 2.0 | 7.0 | 0.00 | 0.00 | 0.00 | 47 | 1010.3 |
| 20260505011854 | 66 | 190 | 1.0 | 7.0 | 0.00 | 0.00 | 0.00 | 48 | 1010.3 |
| 20260505011313 | 66 | 170 | 3.0 | 7.0 | 0.00 | 0.00 | 0.00 | 47 | 1010.2 |
| 20260505010821 | 66 | 176 | 3.0 | 7.0 | 0.00 | 0.00 | 0.00 | 47 | 1010.2 |
| 20260505010128 | 66 | 221 | 3.0 | 6.0 | 0.00 | 0.00 | 0.00 | 46 | 1010.2 |
| 20260505005426 | 66 | 167 | 2.0 | 8.0 | 0.00 | 0.00 | 0.00 | 46 | 1010.3 |
| 20260505004836 | 66 | 204 | 3.0 | 8.0 | 0.00 | 0.00 | 0.00 | 46 | 1010.2 |
| 20260505004246 | 66 | 186 | 3.0 | 8.0 | 0.00 | 0.00 | 0.00 | 45 | 1010.3 |
| 20260505003807 | 66 | 165 | 3.0 | 8.0 | 0.00 | 0.00 | 0.00 | 45 | 1010.3 |
| 20260505003234 | 67 | 196 | 3.0 | 6.0 | 0.00 | 0.00 | 0.00 | 45 | 1010.3 |
| 20260505002644 | 67 | 141 | 2.0 | 8.0 | 0.00 | 0.00 | 0.00 | 44 | 1010.3 |
| 20260505002053 | 67 | 209 | 3.0 | 8.0 | 0.00 | 0.00 | 0.00 | 44 | 1010.2 |
| 20260505001504 | 67 | 201 | 2.0 | 9.0 | 0.00 | 0.00 | 0.00 | 44 | 1010.2 |
| 20260505001024 | 68 | 161 | 3.0 | 9.0 | 0.00 | 0.00 | 0.00 | 42 | 1010.2 |
| 20260505000432 | 68 | 209 | 2.0 | 8.0 | 0.00 | 0.00 | 0.00 | 43 | 1010.1 |
| 20260504235844 | 68 | 183 | 5.0 | 11.0 | 0.00 | 0.00 | 0.00 | 42 | 1010.1 |
| 20260504235254 | 69 | 152 | 4.0 | 11.0 | 0.00 | 0.00 | 0.00 | 41 | 1010.1 |
| 20260504234702 | 69 | 211 | 4.0 | 8.0 | 0.00 | 0.00 | 0.00 | 42 | 1010.1 |
| 20260504234224 | 69 | 192 | 3.0 | 8.0 | 0.00 | 0.00 | 0.00 | 41 | 1010.1 |
| 20260504233632 | 70 | 211 | 3.0 | 8.0 | 0.00 | 0.00 | 0.00 | 41 | 1010.1 |
| 20260504233154 | 70 | 207 | 3.0 | 12.0 | 0.00 | 0.00 | 0.00 | 40 | 1010.1 |
| 20260504232709 | 70 | 165 | 5.0 | 12.0 | 0.00 | 0.00 | 0.00 | 39 | 1010.1 |
| 20260504232013 | 70 | 182 | 4.0 | 10.0 | 0.00 | 0.00 | 0.00 | 39 | 1010.1 |
| 20260504231545 | 71 | 178 | 5.0 | 11.0 | 0.00 | 0.00 | 0.00 | 38 | 1010.1 |
| 20260504230942 | 71 | 192 | 4.0 | 11.0 | 0.00 | 0.00 | 0.00 | 39 | 1010.2 |
| 20260504230348 | 71 | 207 | 4.0 | 10.0 | 0.00 | 0.00 | 0.00 | 40 | 1010.2 |
| 20260504225801 | 71 | 209 | 5.0 | 11.0 | 0.00 | 0.00 | 0.00 | 38 | 1010.2 |
| 20260504225319 | 72 | 194 | 6.0 | 13.0 | 0.00 | 0.00 | 0.00 | 38 | 1010.2 |
| 20260504224729 | 72 | 204 | 5.0 | 17.0 | 0.00 | 0.00 | 0.00 | 38 | 1010.2 |
| 20260504224245 | 72 | 290 | 7.0 | 16.0 | 0.00 | 0.00 | 0.00 | 37 | 1010.1 |
| 20260504223702 | 72 | 229 | 5.0 | 13.0 | 0.00 | 0.00 | 0.00 | 38 | 1010.2 |
| 20260504223111 | 72 | 184 | 5.0 | 11.0 | 0.00 | 0.00 | 0.00 | 39 | 1010.3 |
| 20260504222631 | 72 | 194 | 6.0 | 11.0 | 0.00 | 0.00 | 0.00 | 37 | 1010.1 |
| 20260504222149 | 72 | 180 | 7.0 | 11.0 | 0.00 | 0.00 | 0.00 | 38 | 1010.1 |
| 20260504221606 | 72 | 212 | 5.0 | 11.0 | 0.00 | 0.00 | 0.00 | 38 | 1010.1 |
| 20260504221114 | 72 | 184 | 5.0 | 15.0 | 0.00 | 0.00 | 0.00 | 37 | 1010.2 |
| 20260504220507 | 72 | 213 | 7.0 | 15.0 | 0.00 | 0.00 | 0.00 | 38 | 1010.2 |
| 20260504220023 | 73 | 162 | 8.0 | 15.0 | 0.00 | 0.00 | 0.00 | 36 | 1010.0 |
| 20260504215606 | 73 | 209 | 7.0 | 10.0 | 0.00 | 0.00 | 0.00 | 38 | 1010.2 |
| 20260504215007 | 73 | 226 | 3.0 | 11.0 | 0.00 | 0.00 | 0.00 | 39 | 1010.1 |
| 20260504214532 | 73 | 178 | 5.0 | 12.0 | 0.00 | 0.00 | 0.00 | 38 | 1010.1 |
| 20260504214019 | 73 | 216 | 7.0 | 11.0 | 0.00 | 0.00 | 0.00 | 37 | 1010.2 |
| 20260504213511 | 73 | 215 | 7.0 | 14.0 | 0.00 | 0.00 | 0.00 | 37 | 1010.2 |
| 20260504213011 | 73 | 221 | 5.0 | 14.0 | 0.00 | 0.00 | 0.00 | 39 | 1010.2 |
| 20260504212506 | 73 | 227 | 6.0 | 15.0 | 0.00 | 0.00 | 0.00 | 37 | 1010.3 |
| 20260504212008 | 73 | 196 | 7.0 | 15.0 | 0.00 | 0.00 | 0.00 | 38 | 1010.2 |
| 20260504211511 | 73 | 198 | 6.0 | 15.0 | 0.00 | 0.00 | 0.00 | 39 | 1010.2 |
| 20260504211004 | 73 | 216 | 8.0 | 18.0 | 0.00 | 0.00 | 0.00 | 38 | 1010.2 |
| 20260504210511 | 73 | 180 | 8.0 | 18.0 | 0.00 | 0.00 | 0.00 | 39 | 1010.2 |
| 20260504210021 | 73 | 195 | 9.0 | 16.0 | 0.00 | 0.00 | 0.00 | 39 | 1010.2 |
| 20260504205504 | 73 | 225 | 4.0 | 13.0 | 0.00 | 0.00 | 0.00 | 38 | 1010.2 |
| 20260504205004 | 73 | 205 | 8.0 | 13.0 | 0.00 | 0.00 | 0.00 | 38 | 1010.2 |
| 20260504204510 | 73 | 244 | 6.0 | 18.0 | 0.00 | 0.00 | 0.00 | 38 | 1010.2 |
| 20260504204004 | 73 | 196 | 7.0 | 18.0 | 0.00 | 0.00 | 0.00 | 38 | 1010.2 |
| 20260504203505 | 73 | 129 | 7.0 | 16.0 | 0.00 | 0.00 | 0.00 | 38 | 1010.3 |
| 20260504203016 | 73 | 166 | 7.0 | 13.0 | 0.00 | 0.00 | 0.00 | 37 | 1010.2 |
| 20260504202511 | 73 | 217 | 3.0 | 13.0 | 0.00 | 0.00 | 0.00 | 40 | 1010.4 |
| 20260504202003 | 73 | 221 | 7.0 | 13.0 | 0.00 | 0.00 | 0.00 | 38 | 1010.5 |
| 20260504201524 | 72 | 194 | 6.0 | 13.0 | 0.00 | 0.00 | 0.00 | 38 | 1010.5 |
| 20260504201005 | 72 | 257 | 6.0 | 14.0 | 0.00 | 0.00 | 0.00 | 40 | 1010.6 |
| 20260504200506 | 72 | 224 | 9.0 | 15.0 | 0.00 | 0.00 | 0.00 | 38 | 1010.6 |
| 20260504200028 | 73 | 213 | 8.0 | 15.0 | 0.00 | 0.00 | 0.00 | 38 | 1010.7 |
| 20260504195507 | 72 | 273 | 3.0 | 15.0 | 0.00 | 0.00 | 0.00 | 39 | 1010.7 |
| 20260504195003 | 72 | 219 | 9.0 | 15.0 | 0.00 | 0.00 | 0.00 | 38 | 1010.8 |
| 20260504194512 | 73 | 217 | 6.0 | 13.0 | 0.00 | 0.00 | 0.00 | 38 | 1011.0 |
| 20260504194005 | 73 | 200 | 6.0 | 13.0 | 0.00 | 0.00 | 0.00 | 36 | 1011.1 |
| 20260504193508 | 73 | 290 | 4.0 | 11.0 | 0.00 | 0.00 | 0.00 | 40 | 1011.1 |
| 20260504193028 | 72 | 215 | 5.0 | 11.0 | 0.00 | 0.00 | 0.00 | 39 | 1011.2 |
| 20260504192510 | 72 | 137 | 3.0 | 9.0 | 0.00 | 0.00 | 0.00 | 38 | 1011.2 |
| 20260504192010 | 72 | 205 | 3.0 | 8.0 | 0.00 | 0.00 | 0.00 | 39 | 1011.3 |
| 20260504191516 | 72 | 244 | 4.0 | 11.0 | 0.00 | 0.00 | 0.00 | 39 | 1011.4 |
| 20260504191006 | 72 | 240 | 5.0 | 11.0 | 0.00 | 0.00 | 0.00 | 37 | 1011.6 |
| 20260504190511 | 72 | 220 | 8.0 | 11.0 | 0.00 | 0.00 | 0.00 | 40 | 1011.6 |
| 20260504190030 | 71 | 227 | 5.0 | 11.0 | 0.00 | 0.00 | 0.00 | 40 | 1011.7 |
| 20260504185504 | 71 | 165 | 6.0 | 11.0 | 0.00 | 0.00 | 0.00 | 40 | 1011.8 |
| 20260504185009 | 71 | 246 | 4.0 | 15.0 | 0.00 | 0.00 | 0.00 | 39 | 1011.9 |
| 20260504184518 | 71 | 223 | 9.0 | 15.0 | 0.00 | 0.00 | 0.00 | 40 | 1012.0 |
| 20260504184009 | 71 | 222 | 6.0 | 11.0 | 0.00 | 0.00 | 0.00 | 40 | 1012.1 |
| 20260504183513 | 71 | 206 | 6.0 | 14.0 | 0.00 | 0.00 | 0.00 | 40 | 1012.1 |
| 20260504183014 | 71 | 203 | 7.0 | 14.0 | 0.00 | 0.00 | 0.00 | 39 | 1012.2 |
| 20260504182508 | 71 | 206 | 5.0 | 10.0 | 0.00 | 0.00 | 0.00 | 41 | 1012.3 |
| 20260504182011 | 70 | 315 | 4.0 | 14.0 | 0.00 | 0.00 | 0.00 | 39 | 1012.3 |
| 20260504181522 | 70 | 289 | 6.0 | 14.0 | 0.00 | 0.00 | 0.00 | 39 | 1012.3 |
| 20260504181010 | 70 | 232 | 6.0 | 12.0 | 0.00 | 0.00 | 0.00 | 40 | 1012.4 |
| 20260504180508 | 70 | 224 | 6.0 | 12.0 | 0.00 | 0.00 | 0.00 | 38 | 1012.4 |
| 20260504180011 | 70 | 248 | 4.0 | 12.0 | 0.00 | 0.00 | 0.00 | 38 | 1012.5 |
| 20260504175502 | 70 | 242 | 6.0 | 12.0 | 0.00 | 0.00 | 0.00 | 38 | 1012.3 |
| 20260504175006 | 70 | 230 | 7.0 | 11.0 | 0.00 | 0.00 | 0.00 | 40 | 1012.4 |
| 20260504174518 | 69 | 254 | 4.0 | 12.0 | 0.00 | 0.00 | 0.00 | 36 | 1012.5 |
| 20260504174007 | 69 | 231 | 6.0 | 15.0 | 0.00 | 0.00 | 0.00 | 41 | 1012.6 |
| 20260504173508 | 69 | 202 | 9.0 | 15.0 | 0.00 | 0.00 | 0.00 | 39 | 1012.7 |
| 20260504173029 | 69 | 215 | 4.0 | 15.0 | 0.00 | 0.00 | 0.00 | 41 | 1012.6 |
| 20260504172510 | 69 | 209 | 7.0 | 14.0 | 0.00 | 0.00 | 0.00 | 39 | 1012.6 |
| 20260504172015 | 69 | 188 | 9.0 | 12.0 | 0.00 | 0.00 | 0.00 | 42 | 1012.9 |
| 20260504171530 | 69 | 248 | 4.0 | 20.0 | 0.00 | 0.00 | 0.00 | 39 | 1013.0 |
| 20260504171012 | 68 | 238 | 4.0 | 20.0 | 0.00 | 0.00 | 0.00 | 41 | 1013.0 |
| 20260504170506 | 68 | 223 | 6.0 | 12.0 | 0.00 | 0.00 | 0.00 | 43 | 1012.9 |
| 20260504151003 | 65 | 225 | 4.0 | 10.0 | 0.00 | 0.00 | 0.00 | 48 | 1014.3 |
| 20260504150504 | 64 | 196 | 6.0 | 10.0 | 0.00 | 0.00 | 0.00 | 44 | 1014.3 |
| 20260504141004 | 60 | 193 | 5.0 | 11.0 | 0.00 | 0.00 | 0.00 | 47 | 1014.4 |
| 20260504140504 | 60 | 281 | 5.0 | 10.0 | 0.00 | 0.00 | 0.00 | 47 | 1014.3 |
| 20260504130508 | 54 | 228 | 2.0 | 8.0 | 0.00 | 0.00 | 0.00 | 63 | 1014.6 |